Regional Weather Roundup
Issued by NWS Grand Forks, ND

Home | Current Version | Previous Version | Text Only | Print | Product List | Glossary On
Versions: 1 2 3 4 5 6 7 8 9 10 11 12 13 14 15 16 17 18 19 20 21 22 23 24 25 26 27 28 29 30 31 32 33 34 35 36 37 38 39 40 41 42 43 44 45 46 47 48 49 50
000
ASUS43 KFGF 212031
RWRFGF
PRAIRIE TO PINES  WEATHER ROUNDUP
NATIONAL WEATHER SERVICE EASTERN NORTH DAKOTA/GRAND FORKS ND
200 PM CST SUN JAN 21 2018

 **SATELLITE DATA USED TO AUGMENT SKY COVER AT AUTOMATED STATIONS**
 *****  WEATHER ACROSS EASTERN NORTH DAKOTA  *****

CITY           SKY/WX    TMP DP  RH WIND       PRES   REMARKS
GRAND FORKS    CLOUDY    26  22  84 N8        30.07F WCI  18
GRAND FRKS AFB CLOUDY    27  21  80 N7        30.07F WCI  19
DEVILS LAKE    FOG       23  21  92 W3        30.05F VSB 1/4
FARGO          CLOUDY    27  24  89 N3        30.07S
WAHPETON ARPT  FAIR      30  27  86 N10G16    30.03F WCI  21
$$

 ***** WEATHER ACROSS CENTRAL AND WESTERN NORTH DAKOTA  *****

CITY           SKY/WX    TMP DP  RH WIND       PRES   REMARKS
BISMARCK       FAIR      26  21  81 CALM      30.02F
MINOT          FAIR      31  22  69 SW12      29.99F WCI  22
JAMESTOWN      CLOUDY    24  24 100 CALM      30.03F FOG
MINOT AFB      FAIR      31  23  70 SW7       29.98F WCI  25
GARRISON         N/A     27  20  75 CALM      30.00F
WILLISTON      FAIR      28  20  71 SW10      30.00F WCI  19
DICKINSON      FAIR      33  22  63 W12       29.96F WCI  24
HETTINGER      FAIR      34  23  64 W9        29.99F
$$

 *****  OTHER AIRPORT OBSERVATIONS IN OUR AREA  *****

CITY           SKY/WX    TMP DP  RH WIND       PRES   REMARKS
WALHALLA       FAIR      23  23 100 CALM      30.08F
GRAFTON AIRPOR NOT AVBL
VALLEY CITY AR NOT AVBL
CANDO          FOG       25  25 100 SW5       30.06S VSB 1/2 WCI  19
CAVALIER APRT    N/A     23  21  93 NW5       30.08S WCI  17
GWINNER          N/A     28  27  93 NE10      30.03F WCI  19
SHEYENNE NWR     N/A     27  25  93 N7        29.95S WCI  19
ROLLA          FOG       23  23 100 S10       30.02S VSB<1/4 WCI  12
 ***** THE ABOVE OBSERVATIONS ARE NON NWS ARE NOT QUALITY
       CONTROLLED AND MAY MIS-REPORT RAIN FOR SNOW...
$$

  *****  WEATHER ACROSS NORTHERN MINNESOTA  *****

CITY           SKY/WX    TMP DP  RH WIND       PRES   REMARKS
FLAG ISLAND    CLOUDY    25  21  86 NW6       30.05S WCI  18
WARROAD        CLOUDY    27  21  80 CALM      30.05S
ROSEAU         CLOUDY    27  21  80 CALM      30.06S
HALLOCK        CLOUDY    23  21  93 CALM      30.08S
THF RVR FALLS  CLOUDY    25  23  92 N7        30.05F WCI  17
BAUDETTE       CLOUDY    25  24  96 NW6       30.03S FOG     WCI  18
WASKISH        FOG       23  21  93 CALM      30.03S VSB 3/4
CROOKSTON      FAIR      25  25 100 N6        30.07S FOG     WCI  18
STEPHEN NDAWN    N/A     21  19  93 N5          N/A  WCI  15
GREENBUSH NDAW   N/A     23  21  93 N5          N/A  WCI  17
$$
  *****  WEATHER ACROSS CENTRAL AND WEST MINNESOTA  *****

CITY           SKY/WX    TMP DP  RH WIND       PRES   REMARKS
FOSSTON        CLOUDY    23  21  93 N7        30.03S WCI  15
BEMIDJI        CLOUDY    24  23  98 CALM      30.01S FOG
PARK RAPIDS    FAIR      28  24  85 NW9       29.99F WCI  19
ELBOW LAKE     FAIR      32  28  86 W6        30.01S
WADENA         FAIR      30  27  86 N6        29.99  WCI  24
DETROIT LAKES  CLOUDY    30  28  93 N5        30.02F
MOORHEAD       CLOUDY    27  23  86 NW5       30.06F WCI  21
FERGUS FALLS   FAIR      30  27  86 N7        30.00F WCI  23
MORRIS MN      FAIR      34  28  80 NW10      29.98F
STAPLES        FAIR      30  27  86 N5        29.99S
$$
  *****  WEATHER ELSEWHERE ACROSS MINNESOTA  *****

CITY           SKY/WX    TMP DP  RH WIND       PRES   REMARKS
DULUTH         FAIR      34  27  75 N6        29.96S
INTRNTL FALLS  FOG       25  23  92 CALM      30.02S VSB 1/4
ELY            CLOUDY    25  25 100 NE3       30.00R FOG
CLOQUET        FAIR      34  25  69 NW5       29.97S
WHEATON        FAIR      30  25  80 NW10      30.04F WCI  21
BRAINERD       FAIR      32  26  78 N7        29.99S
HIBBING        FAIR      28  25  88 NW8       29.98S WCI  20
ALEXANDRIA     CLOUDY    34  28  79 N7        29.99F
SAINT CLOUD    CLOUDY    36  29  75 N5        29.97F
MINNEAPOLIS    CLOUDY    38  31  76 N8        29.94F
$$

  *****  WEATHER ACROSS SOUTH DAKOTA  *****

CITY           SKY/WX    TMP DP  RH WIND       PRES   REMARKS
SIOUX FALLS    PTSUNNY   41  33  73 N20G25    29.88F
BROOKINGS      CLOUDY    36  32  87 N14       29.92F
WATERTOWN      LGT SNOW  33  32  96 N5        29.97S FOG
HURON          LGT SNOW  31  31 100 N10       29.97F FOG     WCI  22
SISSETON         N/A     31  25  78 NW12      30.01F WCI  22
ABERDEEN       CLOUDY    32  25  75 N8        30.03F WCI  25
MITCHELL       CLOUDY    35  33  92 N17       29.93F WCI  25
PIERRE         CLOUDY    32  28  85 N6        29.98F
MOBRIDGE       FAIR      33  24  69 N5        29.97F
RAPID CITY     CLOUDY    34  23  64 N13       29.97F WCI  25
$$

  *****  SOME WEATHER IN NEARBY STATES *****

CITY           SKY/WX    TMP DP  RH WIND       PRES   REMARKS
GLASGOW MT     FAIR      22  16  78 N5        29.99F WCI  16
GREAT FALLS MT FAIR      37  15  40 SW29G36   29.96F
CHEYENNE WY    LGT SNOW  21  19  92 N20G29    29.83S VSB 3/4 WCI   6
SCOTTSBLUFF NE LGT SNOW  29  25  85 N25G31    29.89F FOG     WCI  14
OMAHA NE       LGT RAIN  40  39  97 N12       29.72F FOG
DES MOINES IA  DRZL/FOG  41  40  96 E8        29.75F VSB 1/2
DAVENPORT IA   LGT RAIN  42  40  92 E9        29.84F VSB 1/2
CHICAGO IL     CLOUDY    44  41  89 CALM      29.89F FOG
EAU CLAIRE WI  CLOUDY    41  31  67 NE5       29.92S
LA CROSSE WI   PTSUNNY   36  31  82 N5        29.89F HAZE
$$

  *****  SOME NATIONAL WEATHER *****

CITY           SKY/WX    TMP DP  RH WIND       PRES   REMARKS
LA GUARDIA NY  PTSUNNY   52  29  41 NW3       30.13S
RALEIGH NC     FAIR      68  43  40 SW8       30.19F
ATLANTA GA     FAIR      68  45  43 S8        30.19F
NEW ORLEANS LA PTSUNNY   73  60  63 SE12      30.08F
OKLAHOMA CITY  FAIR      67  48  50 SW23G31   29.68F
ALBUQUERQUE NM PTSUNNY   40  12  32 NW17G31   29.86F
SALT LAKE CITY PTSUNNY   36  22  56 N5        30.20F
LOS ANGELES CA PTSUNNY   60  29  30 VRB6      30.29F
BOISE ID       FAIR      40  24  53 SE5       30.22F
SEATTLE WA     CLOUDY    48  40  73 SW29G41   29.81R
$$

*** WEATHER ACROSS MANITOBA...SASKATCHEWAN AND ONTARIO ***
                ***ONTARIO***

CITY           SKY/WX    TMP DP  RH WIND       PRES   REMARKS
GERALDTON      FLURRIES   7   0  72 NE14      30.13R WCI -10
THUNDER BAY    CLOUDY    23  23 100 NE6       30.07R FOG     WCI  16
SIOUX LOOKOUT  FLURRIES  12   9  85 VRB3      30.08R
TORONTO        PTSUNNY   39  32  75 SW8       30.04S
BIG TROUT LK   MOSUNNY   -8 -13  77 NW5       30.32S WCI -19
PICKLE LAKE    FLURRIES   3  -2  78 NE9       30.16F WCI -11
DRYDEN         CLOUDY    16  14  93 NE9       30.04S WCI   4
KENORA         CLOUDY    23  21  93 NE3       30.04R
$$
                *** MANITOBA***

CITY           SKY/WX    TMP DP  RH WIND       PRES   REMARKS
BRANDON        CLOUDY    23  19  86 E5        30.04F WCI  17
DAUPHIN        CLOUDY    18  14  86 E5        30.06F WCI  11
ISLAND LAKE    MOSUNNY    1  -6  71 E9        30.24S WCI -14
PILOT MOUND      N/A     23  21  93 S7          N/A  WCI  15
THE PAS        LGT SNOW   3  -2  78 E9        30.11S WCI -11
THOMPSON       LGT SNOW  -6 -13  71 NE6       30.27R DRFTSNOWWCI -18
WINNIPEG       FLURRIES  18  12  79 NE5       30.11S WCI  11
LYNN LAKE      SUNNY     -2  -8  78 E6        30.17S WCI -14
CHURCHILL      PTCLDY   -18 -24  76 W6        30.49R WCI -33
GILLAM         PTSUNNY  -13 -18  77 NE8       30.39S WCI -30
$$
                ***SASKATCHEWAN***

CITY           SKY/WX    TMP DP  RH WIND       PRES   REMARKS
ESTEVAN        MOSUNNY   27  19  74 S10       29.95F WCI  17
KINDERSLEY     MOSUNNY   27  21  80 S5        29.88F WCI  21
LLOYDMINSTER   FOG       23  21  93 E10       29.89F VSB 1   WCI  12
PRINCE ALBERT  CLOUDY    19  16  86 E5        29.99F WCI  13
REGINA         MOSUNNY   23  19  86 VRB2      29.93F
YORKTON        CLOUDY    30  25  80 SE9       29.95F WCI  22
N. BATTLEFORD  CLOUDY    21  19  93 CALM      29.96S FOG
LA RONGE       MOSUNNY    5   1  85 NW6       30.06R WCI  -6
SASKATOON      FOG       21  19  93 VRB2      29.96S VSB 1/8
SWIFT CURRENT  SUNNY     36  19  51 W15       29.88F
$$
NOTE: THESE ARE AUTOMATED STATIONS WITH LIMITED QUALITY CONTROL
      "FAIR" INDICATES FEW OR NO CLOUDS BELOW 12,000 FEET WITH NO
      SIGNIFICANT WEATHER AND/OR OBSTRUCTIONS TO VISIBILITY.
      SKY/WX - SKY CONDITION AND SIGNIFICANT WEATHER.
      TMP - AIR TEMPERATURE.    DP   - DEWPOINT TEMPERATURE.
      RH  - RELATIVE HUMIDITY.  PRES - PRESSURE.
      HX  - HEAT INDEX.         WCI  - WIND CHILL INDEX.
$




USA.gov is the U.S. government's official web portal to all federal, state and local government web resources and services.